TimeEST,TemperatureF,Dew PointF,Humidity,Sea Level PressureIn,VisibilityMPH,Wind Direction,Wind SpeedMPH,Gust SpeedMPH,PrecipitationIn,Events,Conditions,WindDirDegrees,DateUTC
12:53 AM,48.0,30.0,50,29.98,10.0,West,5.8,-,N/A,,Overcast,280,2013-11-12 05:53:00
1:53 AM,48.9,32.0,52,29.97,10.0,West,8.1,-,N/A,,Overcast,260,2013-11-12 06:53:00
2:53 AM,48.0,35.1,61,29.97,10.0,WNW,8.1,-,N/A,,Overcast,300,2013-11-12 07:53:00
3:53 AM,48.0,33.1,56,29.99,10.0,NNW,13.8,-,N/A,,Overcast,330,2013-11-12 08:53:00
4:53 AM,43.0,34.0,71,30.02,10.0,NNW,16.1,25.3,0.00,Rain,Light Rain,340,2013-11-12 09:53:00
5:53 AM,39.0,30.0,70,30.08,10.0,North,21.9,28.8,0.00,,Overcast,350,2013-11-12 10:53:00
6:53 AM,35.1,25.0,67,30.14,10.0,NNW,12.7,27.6,N/A,,Overcast,340,2013-11-12 11:53:00
7:53 AM,34.0,24.1,67,30.18,10.0,NNW,10.4,-,N/A,,Overcast,340,2013-11-12 12:53:00
8:53 AM,34.0,19.0,54,30.22,10.0,North,15.0,21.9,N/A,,Mostly Cloudy,350,2013-11-12 13:53:00
9:53 AM,35.1,17.1,48,30.23,10.0,NNW,13.8,21.9,N/A,,Overcast,330,2013-11-12 14:53:00
10:53 AM,35.1,17.1,48,30.24,10.0,North,11.5,21.9,N/A,,Partly Cloudy,350,2013-11-12 15:53:00
11:53 AM,36.0,17.1,46,30.23,10.0,North,18.4,25.3,N/A,,Partly Cloudy,350,2013-11-12 16:53:00
12:53 PM,36.0,14.0,41,30.23,10.0,NNW,11.5,-,N/A,,Clear,340,2013-11-12 17:53:00
1:53 PM,36.0,14.0,41,30.24,10.0,North,15.0,21.9,N/A,,Clear,350,2013-11-12 18:53:00
2:53 PM,37.0,12.9,37,30.24,10.0,North,16.1,24.2,N/A,,Clear,350,2013-11-12 19:53:00
3:53 PM,36.0,12.9,39,30.26,10.0,NNW,17.3,24.2,N/A,,Clear,330,2013-11-12 20:53:00
4:53 PM,35.1,10.9,37,30.29,10.0,NNW,13.8,21.9,N/A,,Clear,340,2013-11-12 21:53:00
5:53 PM,33.1,10.9,40,30.31,10.0,NNW,3.5,-,N/A,,Clear,340,2013-11-12 22:53:00
6:53 PM,33.1,10.0,38,30.33,10.0,Calm,Calm,-,N/A,,Clear,0,2013-11-12 23:53:00
7:53 PM,26.1,14.0,60,30.35,10.0,WNW,6.9,-,N/A,,Clear,300,2013-11-13 00:53:00
8:53 PM,30.0,12.0,47,30.35,10.0,NW,9.2,-,N/A,,Clear,320,2013-11-13 01:53:00
9:53 PM,28.9,12.0,49,30.35,10.0,WNW,3.5,-,N/A,,Clear,290,2013-11-13 02:53:00
10:53 PM,28.0,12.0,51,30.36,10.0,NW,6.9,-,N/A,,Clear,310,2013-11-13 03:53:00
11:53 PM,25.0,14.0,63,30.37,10.0,NW,6.9,-,N/A,,Clear,310,2013-11-13 04:53:00